GLENN Weather Reports


time (UTC)temp
C
wind
direction
speed
KPH
gust
KPH
rain 1hr
cm
rain 24hr
cm
rain mn
cm
humidity
%
barometer
mb
20260504081537 11 106 3.2 6.4 0.00 0.00 0.00 38 1011.4
20260504050022 12 123 6.4 11.3 0.00 0.00 0.00 40 1011.6
20260504044526 12 153 8.0 11.3 0.00 0.00 0.00 38 1011.5
20260504043008 12 173 6.4 9.7 0.00 0.00 0.00 39 1011.3
20260504041514 13 202 1.6 4.8 0.00 0.00 0.00 33 1011.2
20260504040022 13 85 0.0 3.2 0.00 0.00 0.00 33 1010.9
20260504034520 13 67 1.6 3.2 0.00 0.00 0.00 35 1010.6
20260504033026 13 56 0.0 3.2 0.00 0.00 0.00 34 1010.4
20260504031531 13 71 1.6 8.0 0.00 0.00 0.00 34 1010.3
20260504030025 13 13 0.0 6.4 0.00 0.00 0.00 34 1010.2
20260504024533 14 75 1.6 4.8 0.00 0.00 0.00 36 1010.1
20260504023025 16 19 0.0 4.8 0.00 0.00 0.00 36 1010.2
20260504021527 17 344 0.0 3.2 0.00 0.00 0.00 34 1010.1
20260504020014 18 59 1.6 8.0 0.00 0.00 0.00 36 1010.2
20260504014530 19 19 0.0 0.0 0.00 0.00 0.00 30 1010.2
20260504013034 20 5 0.0 3.2 0.00 0.00 0.00 30 1010.3
20260504011526 21 360 1.6 4.8 0.00 0.00 0.00 24 1010.4
20260504010028 21 352 1.6 6.4 0.00 0.00 0.00 26 1010.6
20260504004517 21 325 0.0 6.4 0.00 0.00 0.00 25 1010.7
20260504003021 20 281 3.2 14.5 0.00 0.00 0.00 27 1010.8
20260504001508 20 289 6.4 12.9 0.00 0.00 0.00 24 1011.0
20260504000018 21 325 4.8 17.7 0.00 0.00 0.00 24 1011.1
20260503234515 21 299 8.0 17.7 0.00 0.00 0.00 24 1011.2
20260503233021 20 337 8.0 20.9 0.00 0.00 0.00 24 1011.3
20260503231507 21 313 6.4 14.5 0.00 0.00 0.00 24 1011.5
20260503230008 20 281 4.8 12.9 0.00 0.00 0.00 25 1011.7
20260503224513 20 276 11.3 17.7 0.00 0.00 0.00 26 1011.9
20260503223020 21 238 12.9 25.7 0.00 0.00 0.00 28 1012.1
20260503221518 20 280 11.3 24.1 0.00 0.00 0.00 30 1012.3
20260503220008 20 288 6.4 11.3 0.00 0.00 0.00 31 1012.7
20260503214517 20 352 6.4 16.1 0.00 0.00 0.00 27 1013.0
20260503213015 20 273 3.2 14.5 0.00 0.00 0.00 27 1013.2
20260503211522 19 234 11.3 22.5 0.00 0.00 0.00 35 1013.5
20260503210023 19 171 6.4 14.5 0.00 0.00 0.00 31 1013.7
20260503204508 19 311 3.2 11.3 0.00 0.00 0.00 30 1014.0
20260503203035 18 302 11.3 19.3 0.00 0.00 0.00 32 1014.3
20260503201522 18 238 4.8 12.9 0.00 0.00 0.00 34 1014.5
20260503200026 18 319 11.3 19.3 0.00 0.00 0.00 32 1014.7
20260503194535 18 247 9.7 19.3 0.00 0.00 0.00 32 1014.8
20260503193015 17 296 9.7 17.7 0.00 0.00 0.00 35 1015.1
20260503191518 18 345 4.8 8.0 0.00 0.00 0.00 35 1015.4
20260503190035 18 329 4.8 8.0 0.00 0.00 0.00 34 1015.6
20260503184526 17 329 4.8 11.3 0.00 0.00 0.00 35 1015.7
20260503183023 17 348 3.2 12.9 0.00 0.00 0.00 37 1015.8
20260503181527 17 302 3.2 11.3 0.00 0.00 0.00 40 1016.0
20260503174525 16 56 1.6 9.7 0.00 0.00 0.00 43 1016.3
20260503173024 16 9 3.2 9.7 0.00 0.00 0.00 43 1016.5
20260503171514 15 290 3.2 9.7 0.00 0.00 0.00 44 1016.6